SCP
-0 -0 0 0 0 0 0 0 0 0 0 0 0 0 0 0 0 0 0 0 0 0 0 0 0 0 0 0 0 0 0 0 0 0 0 0 0 0 0 0 0 0 0 0
-0 -0 0 0 0 0 0 0 0 0 0 0 0 0 0 0 0 0 0 0 0 0 0 0 0 0 0 0 0 0 0 0 0 0 0 0 0 0 0 0 0 0 0 0
0 0 0 0 0 0 0 0 0 0 0 0 0 0 0 0 0 0 0 0 0 0 0 0 0 0 0 0 0 0 0 0 0 0 0 0 0 0 0 0 0 0 0 0
0 0 0 0 0 0 0 0 0 0 0 0 0 0 0 0 0 0 0 0 0 0 0 0 0 0 0 0 0 0 0 0 0 0 0 0 0 0 0 0 0 0 0 -0
0 0 0 0 0 0 0 0 0 0 0 0 0 0 0 -0 0 0 0 0 0 0 0 0 0 0 0 0 0 0 0 0 0 0 0 0 0 0 0 0 0 0 0 0
0 0 0 0 0 0 0 0 0 0 0 0 0 0 0 -0 -0 -0 0 0 0 0 0 0 0 0 0 0 0 0 0 0 0 0 0 0 0 0 0 0 0 0 0 0
0 0 0 0 0 0 0 0 0 0 0 0 0 0 0 -0 -0 -0 0 0 0 0 0 0 0 0 0 0 0 0 0 0 0 0 0 0 0 0 0 0 0 0 0 0
0 0 0 0 0 0 0 0 0 0 0 0 0 0 0 0 0 0 0 0 0 0 0 0 0 0 0 0 0 0 0 0 0 0 0 0 0 0 0 0 0 0 0 0
0 0 0 0 0 0 0 0 0 0 0 0 0 0 0 0 0 0 0 0 0 0 0 0 0 0 0 0 0 0 0 0 0 0 0 0 0 0 0 0 0 0 0 0
0 0 0 0 0 0 0 0 0 0 0 0 0 0 0 0 0 0 0 0 0 0 0 0 0 0 0 0 0 0 0 0 0 0 0 0 0 0 0 0 0 0 0 0
0 0 0 0 0 0 0 0 0 0 0 0 0 0 0 0 0 0 0 0 0 0 0 0 0 0 0 0 0 0 0 0 0 0 0 0 0 0 0 0 0 0 0 0
0 0 0 0 0 0 0 0 0 0 0 0 0 0 0 0 0 0 0 0 0 0 0 0 0 0 0 0 0 0 0 0 0 0 0 0 0 0 0 0 0 0 0 0
0 0 0 0 0 0 0 0 0 0 0 0 0 0 0 0 0 0 0 0 0 0 0 0 0 0 0 0 0 0 0 0 0 0 0 0 0 0 0 0 0 0 0 0
0 0 0 0 0 0 0 0 0 0 0 0 0 0 0 0 0 0 0 0 0 0 0 0 0 0 0 0 0 0 0 0 0 0 0 0 0 0 0 0 0 0 0 0
0 0 0 0 0 0 0 0 0 0 0 0 0 0 0 0 0 0 0 0 0 0 0 0 0 0 0 0 0 0 0 0 0 0 0 0 0 0 0 0 0 0 0 0
0 0 0 0 0 0 0 0 0 0 0 0 0 0 0 0 0 0 0 0 0 0 0 0 0 0 0 0 0 0 0 0 0 0 0 0 0 0 0 0 0 0 0 0
0 0 0 0 0 0 0 0 0 0 0 0 0 0 0 0 0 0 0 0 0 0 0 0 0 0 0 0 0 0 0 0 0 0 0 0 0 0 0 0 0 0 0 0
0 0 0 0 0 0 0 0 0 0 0 0 0 0 0 0 0 0 0 0 0 0 0 0 0 0 0 0 0 0 0 0 0 0 0 0 0 0 0 0 0 0 0 0
0 0 0 0 0 0 0 0 0 0 0 0 0 0 0 0 0 0 0 0 0 0 0 0 0 0 0 0 0 0 0 0 0 0 0 0 0 0 0 0 0 0 0 0
0 0 0 0 0 0 0 0 0 0 0 0 0 0 0 0 0 0 0 0 0 0 0 0 0 0 0 0 0 0 0 0 0 0 0 0 0 0 0 0 0 0 0 0
0 0 0 0 0 0 0 0 0 0 0 0 0 0 0 0 0 0 0 0 0 0 0 0 0 0 0 0 0 0 0 0 0 0 0 0 0 0 0 0 -0 0 0 0
0 0 0 0 0 0 0 0 0 0 0 0 0 0 0 0 0 0 0 0 0 0 0 0 0 0 0 0 0 0 0 0 0 0 0 0 0 0 0 0 0 0 0 0
0 0 0 0 0 0 0 0 0 0 0 0 0 0 0 0 0 0 0 0 0 0 0 0 0 0 0 0 0 0 0 0 0 0 0 0 0 0 0 0 0 0 0 0
0 0 0 0 0 0 0 0 0 0 0 0 0 0 0 0 0 0 0 0 0 0 0 0 0 0 0 0 0 0 0 0 0 0 0 0 0 0 0 0 0 0 0 0
0 0 0 0 0 0 0 0 0 0 0 0 0 0 0 0 0 0 0 0 0 0 0 0 0 0 0 0 0 0 0 0 0 0 0 0 0 0 0 0 0 0 0 0
0 0 0 0 0 0 0 0 0 0 0 0 0 0 0 0 0 0 0 0 0 0 0 0 0 0 0 0 0 0 0 0 0 0 0 0 0 0 0 0 0 0 0 0
Wind_Speed
4 5 2 2 1 2 2 1 2 4 3 2 3 6 8 5 2 4 4 4 3 3 2 0 1 1 2 2 1 1 2 1 2 1 1 1 1 1 1 1 2 2 2 2
6 3 2 1 1 3 2 1 2 3 4 2 4 7 7 4 3 4 4 4 4 2 1 1 0 1 1 1 0 1 1 1 1 1 0 0 0 0 1 1 2 2 2 2
2 2 2 2 3 3 2 1 1 3 4 4 4 7 5 3 2 2 2 3 3 4 4 2 2 1 1 1 1 1 1 1 1 1 1 1 2 1 2 2 2 2 2 2
1 2 2 3 2 2 1 1 1 1 3 4 3 4 7 4 5 3 3 2 3 3 3 3 3 2 2 3 1 1 1 1 1 1 1 1 1 0 1 1 1 3 3 2
1 2 2 2 1 0 1 1 1 2 2 2 2 1 9 4 4 5 4 3 3 3 4 4 3 3 2 2 1 1 1 0 1 1 1 1 1 1 1 1 2 2 2 2
1 1 0 1 1 1 0 3 3 4 4 2 2 2 8 4 5 4 4 3 3 3 3 3 2 1 1 1 1 1 1 1 1 1 1 1 2 1 1 1 2 2 2 2
4 2 2 1 2 3 4 5 5 6 4 5 2 2 10 7 5 5 5 4 3 2 2 2 2 2 2 2 2 1 2 1 1 1 1 2 2 2 2 2 2 2 2 2
1 4 2 1 1 1 1 4 5 2 4 6 3 6 9 5 5 4 3 2 1 1 1 2 2 2 3 3 2 2 2 2 2 2 2 2 2 2 2 3 2 3 3 3
2 4 2 1 0 3 2 2 3 4 1 4 6 8 10 3 2 2 1 1 1 1 1 2 2 2 2 2 2 3 3 2 2 2 2 2 2 3 3 3 3 3 3 3
3 3 3 2 1 2 2 5 4 3 1 4 7 6 6 5 4 3 2 2 2 2 2 2 2 2 2 2 2 2 2 3 3 2 2 2 3 3 3 3 3 3 3 3
2 2 3 2 3 4 3 2 3 3 3 3 5 9 6 5 4 4 5 4 3 3 3 3 3 2 2 1 1 1 2 2 2 2 2 3 3 3 3 3 4 3 3 3
2 3 3 5 3 2 4 5 6 4 4 4 3 11 4 4 4 4 4 4 4 4 3 3 3 2 2 2 2 2 3 3 3 3 3 3 3 3 3 4 4 3 3 3
4 3 2 4 2 0 2 4 4 4 3 5 5 11 3 2 3 3 4 5 5 4 4 3 3 3 3 3 3 3 3 4 3 2 3 3 3 3 4 4 4 3 3 3
3 3 6 7 4 3 4 4 5 5 5 6 11 12 8 6 6 6 6 6 5 5 4 3 4 4 4 4 4 4 4 3 3 2 3 4 4 4 4 4 4 4 4 4
3 4 5 8 6 5 8 9 9 11 11 11 10 11 14 9 8 7 6 6 5 5 5 4 4 4 4 4 4 4 4 3 3 3 4 5 5 4 4 4 4 4 4 4
3 3 2 6 5 6 10 13 14 14 12 14 14 17 12 8 6 6 7 6 6 6 6 5 5 4 5 5 5 4 4 4 3 4 5 5 4 4 4 4 4 4 4 4
4 4 2 5 3 5 12 13 14 10 9 10 15 15 6 5 7 8 7 6 6 6 6 5 5 5 6 5 5 5 5 4 4 4 5 4 4 4 5 4 4 4 5 4
6 5 3 3 1 10 9 2 6 8 9 10 9 7 5 7 7 6 5 5 6 5 5 6 5 5 5 4 4 4 3 3 4 5 5 5 4 5 5 4 5 5 4 4
7 7 4 3 5 11 9 3 4 6 7 6 9 9 7 5 4 5 5 5 6 6 5 6 5 5 4 5 4 3 4 4 5 5 6 5 5 5 5 5 6 5 4 5
3 4 5 5 5 9 6 1 1 2 6 3 4 6 5 1 2 6 4 3 5 5 4 4 4 4 4 4 3 3 5 5 6 7 6 5 5 5 6 6 6 4 4 5
4 5 8 9 9 11 7 2 3 3 6 2 2 4 3 5 6 5 5 4 5 5 5 4 4 4 5 4 3 4 5 7 7 5 5 5 5 6 6 6 5 4 4 4
9 7 8 7 9 12 4 4 6 7 4 3 3 3 4 6 6 6 5 6 6 6 5 5 5 6 5 4 4 5 7 7 5 4 5 5 5 5 4 5 5 4 4 5
9 10 7 10 10 4 3 6 5 3 4 4 4 4 4 5 6 7 6 7 7 7 6 5 5 6 6 5 5 7 7 5 4 4 5 5 5 5 4 5 5 4 4 4
5 3 4 7 9 8 7 6 5 4 5 5 5 5 5 6 8 8 7 7 7 6 6 5 5 6 7 5 6 7 6 4 4 5 5 5 5 5 4 4 4 4 4 5
6 5 5 9 9 7 6 6 6 6 6 6 6 6 7 7 8 8 7 7 6 6 5 5 5 7 8 6 6 6 5 4 5 5 5 5 5 5 5 5 5 6 6 7
7 9 8 10 7 6 8 6 6 7 7 8 7 7 7 6 8 7 7 6 6 6 6 6 6 7 7 6 7 6 5 5 5 5 5 4 4 4 4 4 5 8 10 12
Wind_Direction
19 54 38 290 250 170 149 137 294 291 320 339 285 282 285 291 262 250 252 250 248 253 270 322 88 86 78 70 83 79 68 49 61 67 82 64 9 12 20 22 20 13 10 13
41 25 303 293 61 85 87 78 314 315 345 352 313 292 282 269 242 233 234 238 235 245 278 270 182 101 117 127 107 102 105 73 66 74 132 154 133 324 335 0 14 15 12 10
105 277 316 67 52 57 31 131 308 316 338 14 350 318 310 306 306 287 252 235 222 214 217 223 219 222 214 228 215 208 192 140 91 87 76 53 44 20 12 7 358 2 7 9
38 335 24 54 40 60 312 299 319 360 27 335 26 311 297 308 318 301 288 274 247 229 212 213 212 223 234 234 217 216 208 165 119 104 101 101 98 311 293 316 329 341 357 0
347 4 36 37 325 78 233 336 46 50 75 350 360 229 288 322 298 284 276 268 256 234 216 219 220 222 231 225 203 206 200 189 126 124 139 138 172 246 293 323 331 337 343 344
297 331 87 234 323 86 101 44 51 48 61 327 270 190 282 263 247 277 282 273 263 246 233 239 241 229 241 227 199 194 183 207 179 158 159 179 209 230 276 302 307 316 322 319
350 348 353 31 41 21 55 68 23 1 4 266 280 225 255 260 253 250 261 269 275 266 240 246 243 237 244 246 235 213 207 230 221 206 214 218 223 222 234 254 262 278 290 286
15 305 317 3 144 156 85 119 144 213 260 291 303 245 257 269 283 278 261 256 294 299 262 247 244 236 243 246 242 224 226 237 227 223 238 235 228 226 239 245 245 249 252 258
178 262 318 328 271 136 120 124 149 133 221 283 279 287 298 286 316 337 350 10 313 294 287 267 259 246 247 250 239 223 224 239 238 233 238 245 236 232 245 253 251 252 253 260
164 256 292 312 61 30 131 144 106 120 190 279 292 277 260 281 283 300 301 293 291 305 305 292 281 266 255 246 243 232 224 234 244 246 242 246 242 239 242 242 251 257 260 259
141 187 301 340 201 194 140 141 132 133 172 194 277 273 232 233 246 254 266 271 270 272 271 272 275 274 266 271 255 243 245 247 255 252 248 254 258 253 251 250 255 255 257 255
150 136 261 255 246 199 188 187 159 172 222 197 225 269 275 244 254 246 261 276 275 267 266 268 272 279 280 277 272 258 252 253 254 250 246 250 257 258 256 259 261 258 256 253
148 137 327 330 337 206 226 205 183 159 155 189 214 261 296 315 280 264 266 279 282 282 277 279 281 269 264 264 264 260 253 253 259 254 254 259 260 258 257 259 261 258 254 257
131 175 197 220 237 198 229 220 189 171 199 225 228 252 279 285 285 285 282 277 276 274 270 269 271 267 263 262 259 261 261 253 253 253 257 261 260 257 257 258 258 254 248 247
132 228 241 256 263 253 246 240 218 216 217 224 242 244 259 256 258 266 268 271 272 272 274 269 266 265 267 268 267 262 262 255 240 241 248 253 257 256 256 257 257 257 252 249
160 222 261 279 258 254 261 248 234 233 231 239 257 267 261 260 257 260 261 260 258 262 267 269 269 269 267 266 266 263 259 255 237 238 246 254 258 258 256 256 256 256 256 253
189 182 220 273 298 315 266 235 216 216 214 207 235 250 266 267 265 259 254 247 245 253 259 263 263 258 258 256 251 252 253 253 243 246 252 253 253 258 259 258 255 252 250 247
178 177 207 265 328 248 249 214 195 217 240 222 237 257 258 252 266 265 245 233 245 251 256 261 262 263 264 257 255 254 253 246 245 250 253 252 249 254 257 253 252 252 249 244
189 183 202 216 249 273 287 258 186 204 262 225 232 259 271 281 303 289 249 228 236 245 251 255 255 257 259 261 256 257 258 253 250 251 250 248 244 250 252 252 252 249 246 249
163 185 199 208 234 251 254 261 191 137 272 250 222 253 264 190 287 279 275 260 264 267 264 264 268 266 264 262 248 247 257 255 253 251 250 249 244 245 250 251 251 246 240 246
155 191 214 225 241 260 250 217 119 211 253 289 256 252 222 210 229 261 285 280 270 271 273 272 268 263 260 257 241 248 254 253 254 255 255 253 247 246 250 253 249 247 246 251
181 186 202 203 227 251 216 147 191 229 262 277 278 268 245 250 268 280 285 282 281 281 279 272 265 265 263 250 239 252 256 257 257 254 257 258 255 253 253 251 256 249 243 250
205 199 196 204 223 249 200 215 239 251 267 269 259 262 259 267 274 280 283 280 279 275 272 267 260 269 270 252 233 247 259 261 256 257 259 262 263 256 249 244 250 253 241 242
242 216 213 247 258 262 264 264 265 251 244 255 262 270 265 263 269 273 277 278 278 277 273 270 267 269 272 261 246 245 257 253 246 254 261 263 262 265 256 244 237 238 238 241
223 195 226 253 269 286 268 253 255 262 268 275 273 265 260 263 268 268 273 276 277 278 276 269 263 265 270 271 266 261 255 241 245 253 258 260 256 256 257 251 240 239 235 230
205 206 218 246 245 245 265 263 258 256 259 263 268 273 267 253 260 267 270 271 274 277 278 277 272 270 272 271 269 267 250 235 239 253 255 253 254 254 253 260 272 253 246 253